Find Geely Xingzuo 03 zu 10 xing

NORAD ID: 61020 Int'l Des: 2024-159 Owner: GEESP Country: CN Constellation: geesatcom operational
LEOCIRCULAR

Current View

Loading 3D Globe...

About Geely Xingzuo 03 zu 10 xing

Description loading...

Upcoming Passes

Passes for default location (London). Set your location on the main map for personalized predictions.

Altitude History

Loading altitude history...

Two-Line Element Set

1 61020U 24159K 26151.19550441 .00002859 00000-0 36563-3 0 9994
2 61020 49.9966 162.0353 0003635 36.0150 324.1033 14.84124055 93985
Epoch: May 31, 2026 • Age: 3 hours

Current Status

Altitude 614.3 km
Velocity 7.56 km/s
Sub-Earth Point 23.78°N, 173.14°E
Launch Date Sep 5, 2024
Age 1.7 years
Type other

Technical Details

Classification Payload
Mass 130.00 kg
Dry Mass 130.00 kg
Total Mass 130.00 kg
Length 1.00 m
Diameter 0.50 m
Span 2.00 m
Shape Box + 2 pan
Manufacturer GWCG
Bus Type GPS100
Phase Status In Orbit
Owner/State GEESP/CN

Most Searched